| time (UTC) | temp C | wind direction | speed KPH | gust KPH | rain 1hr cm | rain 24hr cm | rain mn cm | humidity % | barometer mb |
| 20260509212204 | 16 | 180 | 1.6 | 8.0 | 0.00 | 0.64 | 0.64 | 76 | 1009.3 |
| 20260509211705 | 16 | 208 | 3.2 | 4.8 | 0.00 | 0.64 | 0.64 | 77 | 1009.3 |
| 20260509211204 | 16 | 187 | 0.0 | 4.8 | 0.00 | 0.64 | 0.64 | 78 | 1009.3 |
| 20260509210704 | 16 | 170 | 1.6 | 4.8 | 0.00 | 0.64 | 0.64 | 80 | 1009.4 |
| 20260509210204 | 16 | 152 | 1.6 | 4.8 | 0.00 | 0.64 | 0.64 | 81 | 1009.5 |
| 20260509205704 | 16 | 180 | 1.6 | 4.8 | 0.00 | 0.64 | 0.64 | 82 | 1009.4 |
| 20260509204704 | 15 | 180 | 1.6 | 4.8 | 0.00 | 0.64 | 0.64 | 85 | 1009.4 |
| 20260509204204 | 15 | 149 | 3.2 | 4.8 | 0.00 | 0.64 | 0.64 | 85 | 1009.5 |
| 20260509203705 | 14 | 132 | 3.2 | 4.8 | 0.00 | 0.64 | 0.64 | 85 | 1009.6 |
| 20260509203205 | 14 | 131 | 0.0 | 3.2 | 0.00 | 0.64 | 0.64 | 86 | 1009.7 |
| 20260509202704 | 14 | 131 | 0.0 | 0.0 | 0.00 | 0.64 | 0.64 | 86 | 1009.8 |
| 20260509202204 | 13 | 131 | 0.0 | 0.0 | 0.00 | 0.64 | 0.64 | 86 | 1009.9 |
| 20260509201704 | 13 | 131 | 0.0 | 0.0 | 0.00 | 0.64 | 0.64 | 87 | 1010.0 |
| 20260509201204 | 13 | 131 | 0.0 | 0.0 | 0.00 | 0.64 | 0.64 | 87 | 1010.0 |
| 20260509200704 | 13 | 131 | 0.0 | 0.0 | 0.00 | 0.64 | 0.64 | 87 | 1009.9 |
| 20260509200204 | 13 | 131 | 0.0 | 0.0 | 0.00 | 0.64 | 0.64 | 87 | 1009.9 |
| 20260509195704 | 13 | 131 | 0.0 | 0.0 | 0.00 | 0.64 | 0.64 | 87 | 1009.8 |
| 20260509194704 | 13 | 131 | 0.0 | 0.0 | 0.03 | 0.64 | 0.64 | 87 | 1009.6 |
| 20260509194204 | 13 | 131 | 0.0 | 0.0 | 0.03 | 0.64 | 0.64 | 87 | 1009.7 |
| 20260509193704 | 13 | 131 | 0.0 | 0.0 | 0.03 | 0.64 | 0.64 | 87 | 1009.8 |
| 20260509193204 | 13 | 131 | 0.0 | 0.0 | 0.03 | 0.64 | 0.64 | 87 | 1009.9 |
| 20260509192704 | 13 | 131 | 0.0 | 0.0 | 0.03 | 0.64 | 0.64 | 87 | 1010.1 |
| 20260509191704 | 13 | 131 | 0.0 | 3.2 | 0.05 | 0.64 | 0.64 | 86 | 1010.1 |
| 20260509191204 | 13 | 131 | 0.0 | 1.6 | 0.05 | 0.64 | 0.64 | 85 | 1010.2 |
| 20260509190704 | 14 | 131 | 0.0 | 3.2 | 0.05 | 0.64 | 0.64 | 86 | 1010.4 |
| 20260509190204 | 13 | 131 | 1.6 | 3.2 | 0.05 | 0.64 | 0.64 | 86 | 1010.4 |
| 20260509185205 | 13 | 173 | 1.6 | 1.6 | 0.05 | 0.64 | 0.64 | 86 | 1010.5 |
| 20260509184704 | 13 | 173 | 3.2 | 4.8 | 0.03 | 0.61 | 0.61 | 85 | 1010.6 |
| 20260509184204 | 13 | 167 | 3.2 | 4.8 | 0.03 | 0.61 | 0.61 | 86 | 1010.8 |
| 20260509183205 | 13 | 166 | 0.0 | 4.8 | 0.03 | 0.61 | 0.61 | 86 | 1010.7 |
| 20260509182705 | 13 | 166 | 3.2 | 4.8 | 0.05 | 0.61 | 0.61 | 86 | 1010.8 |
| 20260509182205 | 13 | 186 | 1.6 | 3.2 | 0.03 | 0.58 | 0.58 | 85 | 1010.7 |
| 20260509181704 | 13 | 187 | 1.6 | 3.2 | 0.03 | 0.58 | 0.58 | 86 | 1010.5 |
| 20260509181205 | 13 | 187 | 0.0 | 0.0 | 0.03 | 0.58 | 0.58 | 85 | 1010.4 |
| 20260509180704 | 13 | 187 | 0.0 | 1.6 | 0.03 | 0.58 | 0.58 | 85 | 1010.4 |
| 20260509180203 | 13 | 187 | 1.6 | 3.2 | 0.03 | 0.58 | 0.58 | 85 | 1010.4 |
| 20260509175703 | 13 | 187 | 0.0 | 3.2 | 0.03 | 0.58 | 0.58 | 86 | 1010.6 |
| 20260509175204 | 13 | 187 | 1.6 | 3.2 | 0.05 | 0.58 | 0.58 | 87 | 1010.7 |
| 20260509174704 | 13 | 187 | 0.0 | 1.6 | 0.05 | 0.58 | 0.58 | 86 | 1010.8 |
| 20260509174206 | 13 | 187 | 0.0 | 0.0 | 0.05 | 0.58 | 0.58 | 87 | 1010.8 |
| 20260509173704 | 12 | 187 | 0.0 | 3.2 | 0.08 | 0.58 | 0.58 | 87 | 1010.9 |
| 20260509173204 | 12 | 187 | 0.0 | 0.0 | 0.08 | 0.58 | 0.58 | 87 | 1011.1 |
| 20260509172704 | 12 | 187 | 0.0 | 3.2 | 0.05 | 0.56 | 0.56 | 87 | 1011.2 |
| 20260509172203 | 12 | 187 | 1.6 | 3.2 | 0.05 | 0.56 | 0.56 | 87 | 1011.3 |
| 20260509171204 | 12 | 187 | 1.6 | 3.2 | 0.08 | 0.56 | 0.56 | 87 | 1011.4 |
| 20260509170705 | 12 | 187 | 3.2 | 4.8 | 0.10 | 0.56 | 0.56 | 87 | 1011.4 |
| 20260509170205 | 12 | 184 | 3.2 | 4.8 | 0.10 | 0.56 | 0.56 | 87 | 1011.4 |
| 20260509165706 | 12 | 159 | 1.6 | 4.8 | 0.13 | 0.56 | 0.56 | 87 | 1011.3 |
| 20260509165206 | 12 | 182 | 1.6 | 4.8 | 0.10 | 0.53 | 0.53 | 87 | 1011.3 |
| 20260509164705 | 12 | 209 | 1.6 | 4.8 | 0.13 | 0.53 | 0.53 | 87 | 1011.4 |
| 20260509164205 | 12 | 185 | 4.8 | 11.3 | 0.13 | 0.53 | 0.53 | 87 | 1011.3 |
| 20260509163206 | 12 | 191 | 1.6 | 4.8 | 0.13 | 0.51 | 0.51 | 87 | 1011.0 |
| 20260509162705 | 12 | 187 | 3.2 | 9.7 | 0.18 | 0.51 | 0.51 | 87 | 1010.7 |
| 20260509162205 | 12 | 359 | 3.2 | 4.8 | 0.20 | 0.51 | 0.51 | 88 | 1010.3 |
| 20260509161705 | 12 | 294 | 1.6 | 4.8 | 0.23 | 0.48 | 0.48 | 88 | 1010.5 |
| 20260509161205 | 12 | 294 | 0.0 | 3.2 | 0.28 | 0.48 | 0.48 | 88 | 1010.6 |
| 20260509160705 | 12 | 294 | 1.6 | 3.2 | 0.30 | 0.46 | 0.46 | 88 | 1010.7 |
| 20260509160205 | 12 | 294 | 1.6 | 3.2 | 0.33 | 0.46 | 0.46 | 87 | 1010.9 |
| 20260509155705 | 12 | 275 | 1.6 | 4.8 | 0.33 | 0.43 | 0.43 | 87 | 1010.9 |
| 20260509155205 | 12 | 198 | 0.0 | 3.2 | 0.33 | 0.43 | 0.43 | 88 | 1011.0 |
| 20260509154706 | 12 | 198 | 0.0 | 3.2 | 0.33 | 0.41 | 0.41 | 87 | 1011.3 |
| 20260509154205 | 12 | 198 | 1.6 | 3.2 | 0.33 | 0.41 | 0.41 | 87 | 1011.5 |
| 20260509153705 | 12 | 198 | 1.6 | 3.2 | 0.33 | 0.38 | 0.38 | 87 | 1011.7 |
| 20260509153205 | 12 | 200 | 1.6 | 1.6 | 0.33 | 0.38 | 0.38 | 88 | 1011.7 |
| 20260509152705 | 12 | 200 | 1.6 | 3.2 | 0.30 | 0.33 | 0.33 | 87 | 1011.8 |
| 20260509152205 | 12 | 200 | 0.0 | 0.0 | 0.28 | 0.30 | 0.30 | 87 | 1011.9 |
| 20260509151705 | 12 | 200 | 0.0 | 0.0 | 0.23 | 0.25 | 0.25 | 86 | 1012.1 |
| 20260509151205 | 12 | 200 | 0.0 | 0.0 | 0.18 | 0.20 | 0.20 | 85 | 1012.2 |
| 20260509150705 | 12 | 200 | 0.0 | 3.2 | 0.13 | 0.15 | 0.15 | 85 | 1012.2 |
| 20260509150205 | 12 | 200 | 1.6 | 1.6 | 0.10 | 0.13 | 0.13 | 85 | 1012.1 |
| 20260509144705 | 12 | 200 | 0.0 | 0.0 | 0.05 | 0.08 | 0.08 | 83 | 1011.7 |
| 20260509144205 | 12 | 200 | 0.0 | 0.0 | 0.05 | 0.08 | 0.08 | 83 | 1011.7 |
| 20260509143704 | 12 | 200 | 0.0 | 1.6 | 0.03 | 0.05 | 0.05 | 81 | 1011.7 |
| 20260509143205 | 12 | 200 | 1.6 | 3.2 | 0.03 | 0.05 | 0.05 | 81 | 1011.7 |
| 20260509142705 | 12 | 200 | 0.0 | 3.2 | 0.00 | 0.03 | 0.03 | 80 | 1011.6 |
| 20260509142205 | 12 | 200 | 0.0 | 3.2 | 0.00 | 0.03 | 0.03 | 81 | 1011.5 |
| 20260509141706 | 12 | 200 | 0.0 | 1.6 | 0.00 | 0.03 | 0.03 | 79 | 1011.4 |
| 20260509141205 | 12 | 200 | 0.0 | 4.8 | 0.00 | 0.03 | 0.03 | 78 | 1011.4 |
| 20260509140705 | 13 | 160 | 4.8 | 4.8 | 0.00 | 0.03 | 0.03 | 77 | 1011.4 |
| 20260509140205 | 13 | 179 | 1.6 | 3.2 | 0.00 | 0.03 | 0.03 | 79 | 1011.2 |
| 20260509135705 | 13 | 179 | 0.0 | 1.6 | 0.00 | 0.03 | 0.03 | 80 | 1011.1 |
| 20260509135205 | 13 | 179 | 1.6 | 3.2 | 0.00 | 0.03 | 0.03 | 80 | 1011.0 |
| 20260509134705 | 13 | 179 | 0.0 | 3.2 | 0.00 | 0.03 | 0.03 | 80 | 1011.0 |
| 20260509134205 | 12 | 179 | 1.6 | 3.2 | 0.00 | 0.03 | 0.03 | 81 | 1010.9 |
| 20260509133705 | 12 | 265 | 1.6 | 4.8 | 0.00 | 0.03 | 0.03 | 81 | 1010.9 |
| 20260509133205 | 12 | 190 | 0.0 | 3.2 | 0.00 | 0.03 | 0.03 | 82 | 1011.1 |
| 20260509132705 | 12 | 190 | 1.6 | 4.8 | 0.00 | 0.03 | 0.03 | 82 | 1011.1 |
| 20260509132205 | 12 | 238 | 3.2 | 9.7 | 0.03 | 0.03 | 0.03 | 79 | 1011.1 |
| 20260509131705 | 12 | 275 | 1.6 | 3.2 | 0.03 | 0.03 | 0.03 | 81 | 1011.0 |
| 20260509131205 | 12 | 260 | 0.0 | 0.0 | 0.03 | 0.03 | 0.03 | 82 | 1011.0 |
| 20260509130704 | 12 | 260 | 1.6 | 3.2 | 0.03 | 0.03 | 0.03 | 81 | 1010.9 |
| 20260509130205 | 12 | 260 | 0.0 | 3.2 | 0.03 | 0.03 | 0.03 | 83 | 1010.8 |
| 20260509125704 | 12 | 260 | 1.6 | 4.8 | 0.03 | 0.03 | 0.03 | 84 | 1010.8 |
| 20260509124707 | 12 | 327 | 0.0 | 3.2 | 0.03 | 0.03 | 0.03 | 84 | 1010.5 |
| 20260509124204 | 12 | 13 | 0.0 | 3.2 | 0.03 | 0.03 | 0.03 | 84 | 1010.5 |
| 20260509123705 | 12 | 136 | 0.0 | 3.2 | 0.03 | 0.03 | 0.03 | 85 | 1010.7 |
| 20260509123204 | 12 | 136 | 1.6 | 3.2 | 0.03 | 0.03 | 0.03 | 84 | 1011.0 |
| 20260509122705 | 12 | 136 | 0.0 | 1.6 | 0.03 | 0.03 | 0.03 | 84 | 1011.1 |
| 20260509122204 | 12 | 136 | 0.0 | 3.2 | 0.00 | 0.00 | 0.00 | 82 | 1011.2 |
| 20260509121705 | 12 | 136 | 0.0 | 1.6 | 0.00 | 0.00 | 0.00 | 81 | 1011.4 |
| 20260509120705 | 12 | 136 | 0.0 | 0.0 | 0.00 | 0.00 | 0.00 | 81 | 1011.3 |
| 20260509120204 | 11 | 136 | 0.0 | 0.0 | 0.00 | 0.00 | 0.00 | 81 | 1011.3 |
| 20260509115704 | 11 | 136 | 0.0 | 0.0 | 0.00 | 0.00 | 0.00 | 81 | 1011.3 |
| 20260509115205 | 11 | 136 | 0.0 | 0.0 | 0.00 | 0.00 | 0.00 | 81 | 1011.3 |
| 20260509114704 | 11 | 136 | 0.0 | 1.6 | 0.00 | 0.00 | 0.00 | 82 | 1011.1 |
| 20260509114205 | 11 | 136 | 0.0 | 0.0 | 0.00 | 0.00 | 0.00 | 81 | 1011.0 |
| 20260509113704 | 11 | 136 | 0.0 | 0.0 | 0.00 | 0.00 | 0.00 | 80 | 1010.8 |
| 20260509113204 | 11 | 136 | 0.0 | 0.0 | 0.00 | 0.00 | 0.00 | 81 | 1010.9 |
| 20260509112705 | 11 | 136 | 0.0 | 1.6 | 0.00 | 0.00 | 0.00 | 81 | 1010.9 |
| 20260509112204 | 11 | 136 | 0.0 | 1.6 | 0.00 | 0.00 | 0.00 | 81 | 1011.0 |
| 20260509111705 | 11 | 136 | 1.6 | 3.2 | 0.00 | 0.00 | 0.00 | 79 | 1011.2 |
| 20260509111205 | 11 | 136 | 1.6 | 4.8 | 0.00 | 0.00 | 0.00 | 80 | 1011.2 |
| 20260509110204 | 11 | 136 | 0.0 | 3.2 | 0.00 | 0.00 | 0.00 | 80 | 1010.8 |
| 20260509105704 | 11 | 136 | 0.0 | 1.6 | 0.00 | 0.00 | 0.00 | 80 | 1010.7 |
| 20260509105204 | 11 | 136 | 1.6 | 3.2 | 0.00 | 0.00 | 0.00 | 79 | 1010.8 |
| 20260509104704 | 11 | 136 | 0.0 | 3.2 | 0.00 | 0.00 | 0.00 | 79 | 1010.5 |
| 20260509104205 | 11 | 136 | 1.6 | 4.8 | 0.00 | 0.00 | 0.00 | 78 | 1010.6 |
| 20260509103704 | 11 | 136 | 0.0 | 0.0 | 0.00 | 0.00 | 0.00 | 78 | 1010.3 |
| 20260509103205 | 11 | 136 | 0.0 | 1.6 | 0.00 | 0.00 | 0.00 | 79 | 1010.2 |
| 20260509102705 | 11 | 136 | 0.0 | 3.2 | 0.00 | 0.00 | 0.00 | 79 | 1010.3 |
| 20260509102204 | 11 | 136 | 0.0 | 3.2 | 0.00 | 0.00 | 0.00 | 78 | 1010.5 |
| 20260509101705 | 10 | 136 | 0.0 | 0.0 | 0.00 | 0.00 | 0.00 | 79 | 1010.3 |
| 20260509101204 | 11 | 136 | 0.0 | 0.0 | 0.00 | 0.00 | 0.00 | 78 | 1010.3 |
| 20260509100704 | 10 | 136 | 0.0 | 0.0 | 0.00 | 0.00 | 0.00 | 78 | 1010.3 |
| 20260509100205 | 11 | 136 | 0.0 | 0.0 | 0.00 | 0.00 | 0.00 | 77 | 1010.4 |
| 20260509095704 | 11 | 136 | 0.0 | 0.0 | 0.00 | 0.00 | 0.00 | 77 | 1010.5 |
| 20260509095204 | 11 | 136 | 0.0 | 0.0 | 0.00 | 0.00 | 0.00 | 77 | 1010.5 |
| 20260509094204 | 11 | 136 | 0.0 | 0.0 | 0.00 | 0.00 | 0.00 | 77 | 1010.4 |
| 20260509093705 | 11 | 136 | 0.0 | 0.0 | 0.00 | 0.00 | 0.00 | 77 | 1010.4 |
| 20260509093204 | 10 | 136 | 0.0 | 0.0 | 0.00 | 0.00 | 0.00 | 75 | 1010.6 |
| 20260509092704 | 10 | 136 | 0.0 | 0.0 | 0.00 | 0.00 | 0.00 | 75 | 1010.6 |
| 20260509092204 | 11 | 136 | 0.0 | 0.0 | 0.00 | 0.00 | 0.00 | 75 | 1010.6 |
| 20260509090204 | 11 | 136 | 0.0 | 3.2 | 0.00 | 0.00 | 0.00 | 74 | 1010.4 |
| 20260509085704 | 11 | 136 | 0.0 | 3.2 | 0.00 | 0.00 | 0.00 | 73 | 1010.5 |
| 20260509085204 | 11 | 136 | 0.0 | 1.6 | 0.00 | 0.00 | 0.00 | 75 | 1010.6 |
| 20260509084704 | 11 | 136 | 0.0 | 0.0 | 0.00 | 0.00 | 0.00 | 76 | 1010.6 |
| 20260509084204 | 11 | 136 | 0.0 | 0.0 | 0.00 | 0.00 | 0.00 | 76 | 1010.6 |
| 20260509083705 | 11 | 136 | 0.0 | 0.0 | 0.00 | 0.00 | 0.00 | 74 | 1010.7 |
| 20260509083204 | 11 | 136 | 0.0 | 0.0 | 0.00 | 0.00 | 0.00 | 76 | 1010.7 |
| 20260509082705 | 11 | 136 | 0.0 | 3.2 | 0.00 | 0.00 | 0.00 | 74 | 1010.7 |
| 20260509081704 | 11 | 136 | 0.0 | 3.2 | 0.00 | 0.00 | 0.00 | 74 | 1010.8 |
| 20260509081205 | 11 | 136 | 0.0 | 3.2 | 0.00 | 0.00 | 0.00 | 74 | 1010.7 |
| 20260509080704 | 11 | 136 | 0.0 | 3.2 | 0.00 | 0.00 | 0.00 | 73 | 1010.7 |
| 20260509075205 | 11 | 136 | 0.0 | 0.0 | 0.00 | 0.00 | 0.00 | 72 | 1010.8 |
| 20260509074705 | 11 | 136 | 0.0 | 0.0 | 0.00 | 0.00 | 0.00 | 72 | 1010.8 |
| 20260509074206 | 11 | 136 | 0.0 | 0.0 | 0.00 | 0.00 | 0.00 | 69 | 1010.9 |
| 20260509073706 | 11 | 136 | 0.0 | 0.0 | 0.00 | 0.00 | 0.00 | 69 | 1010.8 |
| 20260509073205 | 12 | 136 | 0.0 | 0.0 | 0.00 | 0.00 | 0.00 | 68 | 1010.8 |
| 20260509072705 | 12 | 136 | 0.0 | 0.0 | 0.00 | 0.00 | 0.00 | 64 | 1010.9 |
| 20260509072205 | 12 | 136 | 1.6 | 4.8 | 0.00 | 0.00 | 0.00 | 63 | 1011.0 |
| 20260509071705 | 12 | 57 | 1.6 | 4.8 | 0.00 | 0.00 | 0.00 | 64 | 1011.0 |
| 20260509071205 | 13 | 57 | 1.6 | 4.8 | 0.00 | 0.00 | 0.00 | 63 | 1010.9 |
| 20260509070705 | 12 | 28 | 3.2 | 4.8 | 0.00 | 0.00 | 0.00 | 63 | 1010.9 |
| 20260509070206 | 12 | 20 | 3.2 | 4.8 | 0.00 | 0.00 | 0.00 | 64 | 1011.0 |
| 20260509065705 | 13 | 15 | 4.8 | 8.0 | 0.00 | 0.00 | 0.00 | 63 | 1011.1 |
| 20260509065205 | 12 | 15 | 3.2 | 4.8 | 0.00 | 0.00 | 0.00 | 64 | 1011.2 |
| 20260509064705 | 12 | 14 | 3.2 | 4.8 | 0.00 | 0.00 | 0.00 | 63 | 1011.3 |
| 20260509064205 | 13 | 26 | 3.2 | 4.8 | 0.00 | 0.00 | 0.00 | 62 | 1011.2 |
| 20260509063205 | 13 | 11 | 3.2 | 4.8 | 0.00 | 0.00 | 0.00 | 63 | 1011.3 |
| 20260509062705 | 13 | 17 | 3.2 | 8.0 | 0.00 | 0.00 | 0.00 | 61 | 1011.3 |
| 20260509061705 | 12 | 5 | 1.6 | 4.8 | 0.00 | 0.00 | 0.00 | 64 | 1011.4 |
| 20260509061205 | 12 | 359 | 1.6 | 3.2 | 0.00 | 0.00 | 0.00 | 67 | 1011.5 |
| 20260509060705 | 12 | 355 | 0.0 | 4.8 | 0.00 | 0.00 | 0.00 | 67 | 1011.5 |
| 20260509055704 | 12 | 53 | 0.0 | 3.2 | 0.00 | 0.00 | 0.00 | 66 | 1011.4 |
| 20260509055205 | 13 | 53 | 0.0 | 4.8 | 0.00 | 0.00 | 0.00 | 65 | 1011.4 |
| 20260509054205 | 12 | 14 | 1.6 | 3.2 | 0.00 | 0.00 | 0.00 | 70 | 1011.5 |
| 20260509053705 | 12 | 345 | 0.0 | 0.0 | 0.00 | 0.00 | 0.00 | 72 | 1011.5 |
| 20260509053205 | 12 | 345 | 0.0 | 0.0 | 0.00 | 0.00 | 0.00 | 74 | 1011.5 |
| 20260509052705 | 12 | 345 | 0.0 | 0.0 | 0.00 | 0.00 | 0.00 | 73 | 1011.6 |
| 20260509052205 | 12 | 345 | 0.0 | 0.0 | 0.00 | 0.00 | 0.00 | 73 | 1011.6 |
| 20260509051705 | 11 | 345 | 0.0 | 0.0 | 0.00 | 0.00 | 0.00 | 75 | 1011.6 |
| 20260509051205 | 11 | 345 | 0.0 | 0.0 | 0.00 | 0.00 | 0.00 | 75 | 1011.6 |
| 20260509050705 | 11 | 345 | 0.0 | 0.0 | 0.00 | 0.00 | 0.00 | 75 | 1011.8 |
| 20260509050206 | 11 | 345 | 0.0 | 0.0 | 0.00 | 0.00 | 0.00 | 73 | 1011.8 |
| 20260509045205 | 11 | 345 | 0.0 | 0.0 | 0.00 | 0.00 | 0.00 | 73 | 1011.7 |
| 20260509044705 | 11 | 345 | 0.0 | 0.0 | 0.00 | 0.00 | 0.00 | 71 | 1011.8 |
| 20260509044205 | 11 | 345 | 0.0 | 0.0 | 0.00 | 0.00 | 0.00 | 72 | 1011.8 |
| 20260509043705 | 11 | 345 | 0.0 | 0.0 | 0.00 | 0.00 | 0.00 | 72 | 1011.8 |
| 20260509042704 | 11 | 345 | 0.0 | 0.0 | 0.00 | 0.00 | 0.00 | 74 | 1011.8 |
| 20260509042205 | 11 | 345 | 0.0 | 0.0 | 0.00 | 0.00 | 0.00 | 72 | 1011.8 |
| 20260509041705 | 11 | 345 | 0.0 | 0.0 | 0.00 | 0.00 | 0.00 | 70 | 1011.8 |
| 20260509041205 | 11 | 345 | 0.0 | 0.0 | 0.00 | 0.00 | 0.00 | 72 | 1011.7 |
| 20260509040706 | 12 | 345 | 0.0 | 0.0 | 0.00 | 0.00 | 0.00 | 70 | 1011.7 |
| 20260509040204 | 12 | 345 | 0.0 | 0.0 | 0.00 | 0.00 | 0.00 | 70 | 1011.8 |
| 20260509035705 | 12 | 345 | 0.0 | 0.0 | 0.00 | 0.00 | 0.00 | 68 | 1012.0 |
| 20260509035205 | 12 | 345 | 0.0 | 0.0 | 0.00 | 0.00 | 0.00 | 68 | 1012.0 |
| 20260509034705 | 11 | 345 | 0.0 | 0.0 | 0.00 | 0.00 | 0.00 | 70 | 1012.0 |
| 20260509034205 | 11 | 345 | 0.0 | 0.0 | 0.00 | 0.00 | 0.00 | 71 | 1012.1 |
| 20260509033705 | 11 | 345 | 0.0 | 0.0 | 0.00 | 0.00 | 0.00 | 75 | 1012.1 |
| 20260509033204 | 11 | 345 | 0.0 | 0.0 | 0.00 | 0.00 | 0.00 | 74 | 1012.1 |
| 20260509032704 | 12 | 345 | 0.0 | 0.0 | 0.00 | 0.00 | 0.00 | 71 | 1012.2 |
| 20260509032204 | 12 | 345 | 0.0 | 0.0 | 0.00 | 0.00 | 0.00 | 69 | 1012.1 |
| 20260509031704 | 12 | 345 | 0.0 | 0.0 | 0.00 | 0.00 | 0.00 | 69 | 1012.1 |
| 20260509031204 | 12 | 345 | 0.0 | 0.0 | 0.00 | 0.00 | 0.00 | 68 | 1012.2 |
| 20260509030705 | 12 | 345 | 0.0 | 0.0 | 0.00 | 0.00 | 0.00 | 70 | 1012.3 |
| 20260509030204 | 11 | 345 | 0.0 | 0.0 | 0.00 | 0.00 | 0.00 | 73 | 1012.4 |
| 20260509025705 | 11 | 345 | 0.0 | 0.0 | 0.00 | 0.00 | 0.00 | 74 | 1012.5 |
| 20260509025206 | 11 | 345 | 0.0 | 0.0 | 0.00 | 0.00 | 0.00 | 74 | 1012.6 |
| 20260509024705 | 11 | 345 | 0.0 | 0.0 | 0.00 | 0.00 | 0.00 | 72 | 1012.5 |
| 20260509024204 | 11 | 345 | 0.0 | 0.0 | 0.00 | 0.00 | 0.00 | 73 | 1012.4 |
| 20260509023704 | 12 | 345 | 0.0 | 0.0 | 0.00 | 0.00 | 0.00 | 72 | 1012.4 |
| 20260509022704 | 12 | 345 | 0.0 | 0.0 | 0.00 | 0.00 | 0.00 | 69 | 1011.9 |
| 20260509022204 | 12 | 345 | 0.0 | 0.0 | 0.00 | 0.00 | 0.00 | 69 | 1011.8 |
| 20260509021705 | 12 | 345 | 0.0 | 0.0 | 0.00 | 0.00 | 0.00 | 68 | 1011.8 |
| 20260509021205 | 12 | 345 | 0.0 | 0.0 | 0.00 | 0.00 | 0.00 | 68 | 1011.8 |
| 20260509020705 | 12 | 345 | 0.0 | 0.0 | 0.00 | 0.00 | 0.00 | 67 | 1011.9 |
| 20260509020205 | 12 | 345 | 0.0 | 0.0 | 0.00 | 0.00 | 0.00 | 68 | 1012.0 |
| 20260509015705 | 12 | 345 | 0.0 | 0.0 | 0.00 | 0.00 | 0.00 | 67 | 1011.8 |
| 20260509014704 | 12 | 345 | 0.0 | 0.0 | 0.00 | 0.00 | 0.00 | 68 | 1011.9 |
| 20260509014204 | 12 | 345 | 0.0 | 0.0 | 0.00 | 0.00 | 0.00 | 69 | 1011.9 |
| 20260509013705 | 12 | 345 | 0.0 | 0.0 | 0.00 | 0.00 | 0.00 | 71 | 1011.9 |
| 20260509013204 | 12 | 345 | 0.0 | 0.0 | 0.00 | 0.00 | 0.00 | 70 | 1011.8 |
| 20260509012704 | 12 | 345 | 0.0 | 0.0 | 0.00 | 0.00 | 0.00 | 70 | 1011.8 |
| 20260509011704 | 12 | 345 | 0.0 | 0.0 | 0.00 | 0.00 | 0.00 | 70 | 1011.8 |
| 20260509010704 | 13 | 345 | 1.6 | 3.2 | 0.00 | 0.00 | 0.00 | 69 | 1011.7 |
| 20260509005204 | 13 | 345 | 0.0 | 0.0 | 0.00 | 0.00 | 0.00 | 68 | 1011.6 |
| 20260509004704 | 13 | 345 | 0.0 | 3.2 | 0.00 | 0.00 | 0.00 | 68 | 1011.6 |
| 20260509004204 | 13 | 345 | 0.0 | 1.6 | 0.00 | 0.00 | 0.00 | 68 | 1011.6 |
| 20260509003704 | 13 | 345 | 0.0 | 0.0 | 0.00 | 0.00 | 0.00 | 66 | 1011.6 |
| 20260509003204 | 13 | 345 | 0.0 | 0.0 | 0.00 | 0.00 | 0.00 | 67 | 1011.7 |
| 20260509002705 | 13 | 345 | 0.0 | 0.0 | 0.00 | 0.00 | 0.00 | 67 | 1011.6 |
| 20260509002204 | 13 | 345 | 1.6 | 1.6 | 0.00 | 0.00 | 0.00 | 67 | 1011.6 |
| 20260509000705 | 13 | 345 | 0.0 | 1.6 | 0.00 | 0.00 | 0.00 | 66 | 1011.5 |
| 20260509000205 | 13 | 345 | 1.6 | 1.6 | 0.00 | 0.00 | 0.00 | 65 | 1011.5 |
| 20260508235704 | 13 | 345 | 0.0 | 1.6 | 0.00 | 0.00 | 0.00 | 64 | 1011.5 |
| 20260508235204 | 14 | 345 | 0.0 | 3.2 | 0.00 | 0.00 | 0.00 | 64 | 1011.4 |
| 20260508234704 | 14 | 345 | 0.0 | 3.2 | 0.00 | 0.00 | 0.00 | 62 | 1011.3 |
| 20260508234204 | 15 | 345 | 0.0 | 1.6 | 0.00 | 0.00 | 0.00 | 63 | 1011.3 |
| 20260508233704 | 15 | 322 | 1.6 | 4.8 | 0.00 | 0.00 | 0.00 | 62 | 1011.2 |
| 20260508233204 | 15 | 313 | 1.6 | 12.9 | 0.00 | 0.00 | 0.00 | 59 | 1011.2 |
| 20260508232704 | 16 | 304 | 1.6 | 3.2 | 0.00 | 0.00 | 0.00 | 59 | 1011.0 |
| 20260508232204 | 16 | 304 | 1.6 | 3.2 | 0.00 | 0.00 | 0.00 | 54 | 1010.9 |
| 20260508231704 | 16 | 340 | 3.2 | 8.0 | 0.00 | 0.00 | 0.00 | 52 | 1010.9 |
| 20260508231204 | 16 | 281 | 1.6 | 3.2 | 0.00 | 0.00 | 0.00 | 53 | 1010.8 |
| 20260508230204 | 16 | 345 | 3.2 | 4.8 | 0.00 | 0.00 | 0.00 | 58 | 1010.8 |
| 20260508225704 | 16 | 309 | 0.0 | 3.2 | 0.00 | 0.00 | 0.00 | 59 | 1010.9 |
| 20260508225204 | 16 | 309 | 1.6 | 3.2 | 0.00 | 0.00 | 0.00 | 58 | 1011.0 |
| 20260508224705 | 16 | 309 | 0.0 | 3.2 | 0.00 | 0.00 | 0.00 | 58 | 1011.0 |
| 20260508224206 | 16 | 309 | 0.0 | 3.2 | 0.00 | 0.00 | 0.00 | 58 | 1011.0 |
| 20260508223705 | 16 | 297 | 1.6 | 4.8 | 0.00 | 0.00 | 0.00 | 55 | 1011.0 |
| 20260508223205 | 17 | 239 | 1.6 | 3.2 | 0.00 | 0.00 | 0.00 | 51 | 1010.9 |
| 20260508222705 | 17 | 271 | 1.6 | 9.7 | 0.00 | 0.00 | 0.00 | 53 | 1010.8 |
| 20260508222205 | 17 | 271 | 3.2 | 8.0 | 0.00 | 0.00 | 0.00 | 50 | 1010.7 |
| 20260508221705 | 17 | 300 | 1.6 | 4.8 | 0.00 | 0.00 | 0.00 | 46 | 1010.7 |
| 20260508221205 | 17 | 270 | 1.6 | 11.3 | 0.00 | 0.00 | 0.00 | 49 | 1010.7 |
| 20260508220705 | 17 | 313 | 0.0 | 3.2 | 0.00 | 0.00 | 0.00 | 46 | 1010.7 |
| 20260508220205 | 17 | 313 | 1.6 | 4.8 | 0.00 | 0.00 | 0.00 | 50 | 1010.7 |
| 20260508215705 | 17 | 232 | 3.2 | 4.8 | 0.00 | 0.00 | 0.00 | 47 | 1010.8 |
| 20260508215205 | 17 | 270 | 1.6 | 11.3 | 0.00 | 0.00 | 0.00 | 49 | 1010.8 |
| 20260508214705 | 16 | 241 | 3.2 | 8.0 | 0.00 | 0.00 | 0.00 | 47 | 1010.9 |
| 20260508214205 | 17 | 8 | 3.2 | 11.3 | 0.00 | 0.00 | 0.00 | 47 | 1011.0 |
| 20260508213705 | 17 | 289 | 3.2 | 11.3 | 0.00 | 0.00 | 0.00 | 45 | 1010.9 |
| 20260508213205 | 17 | 201 | 3.2 | 12.9 | 0.00 | 0.00 | 0.00 | 47 | 1011.0 |
| 20260508212704 | 17 | 242 | 3.2 | 16.1 | 0.00 | 0.00 | 0.00 | 44 | 1010.9 |